| time (UTC) | temp F | wind direction | speed knots | gust knots | rain 1hr in | rain 24hr in | rain mn in | humidity % | barometer mb |
| 20260508145017 | 64 | 113 | 2.6 | 6.1 | 0.00 | 0.30 | 0.00 | 58 | 1017.4 |
| 20260508144017 | 64 | 45 | 0.9 | 4.3 | 0.00 | 0.31 | 0.00 | 59 | 1017.5 |
| 20260508143017 | 64 | 113 | 1.7 | 5.2 | 0.00 | 0.31 | 0.00 | 55 | 1017.4 |
| 20260508142017 | 64 | 68 | 1.7 | 3.5 | 0.00 | 0.31 | 0.00 | 58 | 1017.4 |
| 20260508141017 | 63 | 158 | 1.7 | 2.6 | 0.00 | 0.32 | 0.00 | 66 | 1017.4 |
| 20260508140017 | 63 | 113 | 1.7 | 3.5 | 0.00 | 0.32 | 0.00 | 67 | 1017.4 |
| 20260508135017 | 62 | 113 | 0.9 | 2.6 | 0.00 | 0.32 | 0.00 | 70 | 1017.4 |
| 20260508134017 | 62 | 0.0 | 1.7 | 0.00 | 0.32 | 0.00 | 70 | 1017.4 | |
| 20260508133017 | 61 | 45 | 0.9 | 2.6 | 0.00 | 0.33 | 0.00 | 72 | 1017.3 |
| 20260508132017 | 60 | 90 | 0.9 | 4.3 | 0.00 | 0.33 | 0.00 | 70 | 1017.3 |
| 20260508131017 | 60 | 113 | 1.7 | 5.2 | 0.00 | 0.33 | 0.00 | 72 | 1017.2 |
| 20260508130017 | 59 | 113 | 1.7 | 3.5 | 0.00 | 0.33 | 0.00 | 77 | 1017.1 |
| 20260508125017 | 58 | 113 | 0.9 | 3.5 | 0.00 | 0.34 | 0.00 | 82 | 1016.9 |
| 20260508124017 | 58 | 0.0 | 2.6 | 0.00 | 0.36 | 0.00 | 86 | 1016.7 | |
| 20260508123017 | 57 | 90 | 0.9 | 3.5 | 0.00 | 0.38 | 0.00 | 90 | 1016.7 |
| 20260508122017 | 56 | 90 | 1.7 | 3.5 | 0.00 | 0.43 | 0.00 | 95 | 1016.7 |
| 20260508121017 | 54 | 0.0 | 0.9 | 0.00 | 0.50 | 0.00 | 97 | 1016.6 | |
| 20260508120037 | 54 | 0.0 | 0.0 | 0.00 | 0.52 | 0.00 | 97 | 1016.4 | |
| 20260508115017 | 53 | 0.0 | 0.0 | 0.00 | 0.52 | 0.00 | 97 | 1016.2 | |
| 20260508114017 | 53 | 0.0 | 0.0 | 0.00 | 0.53 | 0.00 | 97 | 1016.1 | |
| 20260508113017 | 52 | 0.0 | 0.0 | 0.00 | 0.53 | 0.00 | 96 | 1015.8 | |
| 20260508112017 | 51 | 0.0 | 0.0 | 0.00 | 0.53 | 0.00 | 97 | 1015.5 | |
| 20260508111017 | 50 | 0.0 | 0.0 | 0.00 | 0.54 | 0.00 | 96 | 1015.5 | |
| 20260508110018 | 50 | 0.0 | 0.0 | 0.00 | 0.54 | 0.00 | 96 | 1015.4 | |
| 20260508105017 | 49 | 0.0 | 0.0 | 0.00 | 0.54 | 0.00 | 96 | 1015.1 | |
| 20260508104017 | 50 | 0.0 | 0.0 | 0.00 | 0.54 | 0.00 | 96 | 1014.9 | |
| 20260508103017 | 49 | 0.0 | 0.0 | 0.00 | 0.54 | 0.00 | 96 | 1014.6 | |
| 20260508102017 | 49 | 0.0 | 0.0 | 0.00 | 0.54 | 0.00 | 96 | 1014.6 | |
| 20260508101017 | 50 | 0.0 | 0.0 | 0.00 | 0.54 | 0.00 | 96 | 1014.3 | |
| 20260508100017 | 50 | 0.0 | 0.0 | 0.00 | 0.54 | 0.00 | 96 | 1014.5 | |
| 20260508095017 | 50 | 0.0 | 0.0 | 0.00 | 0.54 | 0.00 | 96 | 1014.4 | |
| 20260508094017 | 50 | 0.0 | 0.0 | 0.00 | 0.54 | 0.00 | 96 | 1014.4 | |
| 20260508093017 | 50 | 0.0 | 0.0 | 0.00 | 0.54 | 0.00 | 96 | 1014.6 | |
| 20260508092017 | 51 | 0.0 | 0.0 | 0.00 | 0.54 | 0.00 | 96 | 1014.5 | |
| 20260508091017 | 51 | 0.0 | 0.0 | 0.00 | 0.54 | 0.00 | 96 | 1014.5 | |
| 20260508090017 | 51 | 0.0 | 0.0 | 0.00 | 0.55 | 0.00 | 96 | 1014.6 | |
| 20260508085037 | 51 | 0.0 | 0.0 | 0.00 | 0.55 | 0.00 | 96 | 1014.2 | |
| 20260508084017 | 51 | 0.0 | 0.0 | 0.00 | 0.56 | 0.00 | 96 | 1014.3 | |
| 20260508083517 | 51 | 0.0 | 0.0 | 0.00 | 0.56 | 0.00 | 96 | 1014.2 | |
| 20260508082537 | 51 | 0.0 | 0.0 | 0.00 | 0.57 | 0.00 | 96 | 1014.2 | |
| 20260508081517 | 51 | 0.0 | 0.0 | 0.00 | 0.58 | 0.00 | 96 | 1014.1 | |
| 20260508080517 | 52 | 0.0 | 0.0 | 0.00 | 0.59 | 0.00 | 96 | 1014.0 | |
| 20260508075517 | 52 | 0.0 | 0.0 | 0.00 | 0.62 | 0.00 | 96 | 1013.7 | |
| 20260508074517 | 52 | 0.0 | 0.0 | 0.00 | 0.64 | 0.00 | 96 | 1013.9 | |
| 20260508073517 | 52 | 0.0 | 0.0 | 0.00 | 0.66 | 0.00 | 96 | 1013.7 | |
| 20260508072517 | 52 | 0.0 | 0.0 | 0.00 | 0.68 | 0.00 | 96 | 1013.6 | |
| 20260508071517 | 52 | 0.0 | 0.0 | 0.00 | 0.70 | 0.00 | 96 | 1013.6 | |
| 20260508070538 | 53 | 0.0 | 0.0 | 0.00 | 0.73 | 0.00 | 96 | 1013.6 | |
| 20260508065517 | 53 | 0.0 | 0.0 | 0.00 | 0.78 | 0.00 | 96 | 1013.4 | |
| 20260508064515 | 53 | 0.0 | 0.0 | 0.00 | 0.81 | 0.00 | 96 | 1013.4 | |
| 20260508063537 | 54 | 0.0 | 0.0 | 0.00 | 0.88 | 0.00 | 96 | 1013.4 | |
| 20260508062535 | 54 | 0.0 | 0.0 | 0.00 | 0.94 | 0.00 | 96 | 1013.4 | |
| 20260508061515 | 54 | 0.0 | 0.0 | 0.00 | 1.02 | 0.00 | 96 | 1013.5 | |
| 20260508060515 | 54 | 0.0 | 0.0 | 0.00 | 1.17 | 0.00 | 96 | 1013.5 | |
| 20260508055535 | 54 | 0.0 | 0.0 | 0.00 | 1.37 | 0.00 | 96 | 1013.4 | |
| 20260508054518 | 55 | 0.0 | 0.0 | 0.00 | 1.42 | 0.00 | 96 | 1013.5 | |
| 20260508053515 | 55 | 0.0 | 0.0 | 0.00 | 1.51 | 0.00 | 96 | 1013.4 | |
| 20260508052515 | 55 | 0.0 | 0.0 | 0.00 | 1.62 | 0.00 | 96 | 1013.3 | |
| 20260508051515 | 55 | 0.0 | 0.0 | 0.00 | 1.62 | 0.00 | 95 | 1013.4 | |
| 20260508050515 | 56 | 0.0 | 0.0 | 0.00 | 1.62 | 0.00 | 95 | 1013.1 | |
| 20260508045515 | 55 | 0.0 | 0.0 | 0.00 | 1.62 | 0.00 | 96 | 1013.2 | |
| 20260508044515 | 56 | 0.0 | 0.0 | 0.00 | 1.62 | 0.00 | 95 | 1013.0 | |
| 20260508043515 | 56 | 0.0 | 0.0 | 0.00 | 1.62 | 0.00 | 95 | 1012.9 | |
| 20260508042515 | 56 | 0.0 | 0.0 | 0.00 | 1.62 | 0.00 | 95 | 1012.8 | |
| 20260508041515 | 57 | 0.0 | 0.0 | 0.00 | 1.62 | 0.00 | 95 | 1012.8 | |
| 20260508040515 | 57 | 0.0 | 0.0 | 0.00 | 1.62 | 0.00 | 95 | 1012.8 | |
| 20260508040015 | 57 | 0.0 | 0.0 | 0.00 | 1.62 | 1.62 | 95 | 1012.7 | |
| 20260508035016 | 57 | 0.0 | 0.0 | 0.00 | 1.62 | 1.62 | 95 | 1012.7 | |
| 20260508034136 | 57 | 0.0 | 0.0 | 0.00 | 1.63 | 1.62 | 95 | 1012.6 | |
| 20260508033016 | 57 | 0.0 | 0.0 | 0.00 | 1.65 | 1.62 | 95 | 1012.8 | |
| 20260508032016 | 58 | 0.0 | 0.0 | 0.00 | 1.73 | 1.62 | 95 | 1012.6 | |
| 20260508031016 | 58 | 0.0 | 0.0 | 0.00 | 1.85 | 1.62 | 95 | 1012.7 | |
| 20260508030016 | 58 | 0.0 | 0.0 | 0.00 | 1.93 | 1.62 | 95 | 1012.6 | |
| 20260508025016 | 58 | 0.0 | 0.0 | 0.00 | 1.97 | 1.62 | 95 | 1012.5 | |
| 20260508024016 | 58 | 0.0 | 0.0 | 0.00 | 2.00 | 1.62 | 94 | 1012.4 | |
| 20260508023016 | 58 | 0.0 | 1.7 | 0.00 | 2.02 | 1.62 | 94 | 1012.3 | |
| 20260508022016 | 58 | 0.0 | 0.0 | 0.00 | 2.04 | 1.62 | 94 | 1012.2 | |
| 20260508021016 | 58 | 0.0 | 0.0 | 0.00 | 2.06 | 1.62 | 94 | 1012.1 | |
| 20260508020056 | 59 | 0.0 | 0.9 | 0.00 | 2.10 | 1.62 | 94 | 1011.9 | |
| 20260508015016 | 59 | 0.0 | 0.9 | 0.00 | 2.14 | 1.62 | 94 | 1011.6 | |
| 20260508014016 | 59 | 0.0 | 2.6 | 0.00 | 2.18 | 1.62 | 94 | 1011.3 | |
| 20260508013016 | 59 | 0.0 | 0.0 | 0.00 | 2.20 | 1.62 | 94 | 1011.4 | |
| 20260508012016 | 59 | 0.0 | 0.0 | 0.00 | 2.21 | 1.62 | 93 | 1011.4 | |
| 20260508011016 | 59 | 0.0 | 0.0 | 0.00 | 2.22 | 1.62 | 93 | 1011.0 | |
| 20260508010036 | 59 | 0.0 | 1.7 | 0.00 | 2.25 | 1.62 | 92 | 1011.1 | |
| 20260508005036 | 59 | 0 | 0.9 | 2.6 | 0.00 | 2.29 | 1.62 | 92 | 1010.6 |
| 20260508004016 | 60 | 0 | 0.9 | 3.5 | 0.00 | 2.29 | 1.62 | 92 | 1010.2 |
| 20260508003016 | 59 | 90 | 1.7 | 5.2 | 0.00 | 2.29 | 1.62 | 92 | 1010.0 |
| 20260508002037 | 60 | 0.0 | 3.5 | 0.00 | 2.29 | 1.62 | 92 | 1009.7 | |
| 20260508001016 | 60 | 68 | 0.9 | 3.5 | 0.00 | 2.29 | 1.62 | 92 | 1009.8 |
| 20260508000016 | 60 | 23 | 1.7 | 5.2 | 0.01 | 2.29 | 1.62 | 92 | 1009.6 |
| 20260507235036 | 59 | 90 | 2.6 | 9.6 | 0.02 | 2.29 | 1.62 | 92 | 1009.3 |
| 20260507234016 | 60 | 0 | 1.7 | 7.8 | 0.02 | 2.29 | 1.62 | 92 | 1008.6 |
| 20260507233016 | 60 | 0 | 1.7 | 4.3 | 0.02 | 2.29 | 1.62 | 93 | 1009.0 |
| 20260507232136 | 60 | 0 | 1.7 | 7.0 | 0.02 | 2.29 | 1.62 | 93 | 1008.8 |
| 20260507231016 | 60 | 90 | 2.6 | 7.8 | 0.02 | 2.29 | 1.62 | 93 | 1008.3 |
| 20260507230036 | 60 | 90 | 2.6 | 7.8 | 0.05 | 2.28 | 1.61 | 93 | 1008.4 |
| 20260507225016 | 60 | 68 | 1.7 | 7.8 | 0.04 | 2.27 | 1.60 | 93 | 1008.5 |
| 20260507224016 | 60 | 0 | 2.6 | 12.2 | 0.08 | 2.27 | 1.60 | 92 | 1008.1 |
| 20260507223016 | 61 | 135 | 2.6 | 7.0 | 0.24 | 2.27 | 1.60 | 92 | 1007.9 |
| 20260507222016 | 61 | 135 | 2.6 | 9.6 | 0.26 | 2.27 | 1.60 | 92 | 1008.0 |
| 20260507221016 | 62 | 90 | 3.5 | 7.8 | 0.26 | 2.27 | 1.60 | 92 | 1007.7 |
| 20260507220016 | 62 | 113 | 3.5 | 9.6 | 0.22 | 2.23 | 1.56 | 91 | 1007.3 |
| 20260507215016 | 63 | 135 | 3.5 | 8.7 | 0.22 | 2.23 | 1.56 | 90 | 1007.3 |
| 20260507214016 | 64 | 113 | 3.5 | 10.4 | 0.18 | 2.19 | 1.52 | 87 | 1006.6 |
| 20260507213016 | 69 | 0 | 4.3 | 11.3 | 0.02 | 2.03 | 1.36 | 82 | 1006.0 |
| 20260507212016 | 74 | 113 | 4.3 | 8.7 | 0.00 | 2.01 | 1.34 | 71 | 1005.2 |
| 20260507211036 | 79 | 0.0 | 2.6 | 0.00 | 2.01 | 1.34 | 67 | 1005.6 | |
| 20260507210016 | 79 | 0.0 | 2.6 | 0.00 | 2.01 | 1.34 | 68 | 1005.7 | |
| 20260507205016 | 78 | 315 | 0.9 | 2.6 | 0.00 | 2.01 | 1.34 | 68 | 1006.0 |
| 20260507204037 | 76 | 293 | 0.9 | 2.6 | 0.00 | 2.01 | 1.34 | 70 | 1005.8 |
| 20260507203036 | 78 | 0 | 0.9 | 4.3 | 0.00 | 2.01 | 1.34 | 68 | 1006.0 |
| 20260507202017 | 78 | 315 | 1.7 | 5.2 | 0.00 | 2.01 | 1.34 | 67 | 1006.1 |
| 20260507201036 | 78 | 158 | 0.9 | 3.5 | 0.00 | 2.01 | 1.34 | 69 | 1006.1 |
| 20260507200017 | 77 | 0.0 | 1.7 | 0.00 | 2.01 | 1.34 | 72 | 1006.4 | |
| 20260507195016 | 77 | 0 | 0.9 | 1.7 | 0.00 | 2.01 | 1.34 | 71 | 1006.6 |
| 20260507194017 | 77 | 248 | 0.9 | 5.2 | 0.00 | 2.01 | 1.34 | 72 | 1006.6 |
| 20260507193017 | 77 | 293 | 0.9 | 5.2 | 0.00 | 2.01 | 1.34 | 74 | 1006.7 |
| 20260507192016 | 76 | 293 | 0.9 | 5.2 | 0.00 | 2.01 | 1.34 | 73 | 1006.9 |
| 20260507191016 | 76 | 0 | 1.7 | 6.1 | 0.00 | 2.01 | 1.34 | 74 | 1007.1 |
| 20260507190017 | 75 | 248 | 0.9 | 4.3 | 0.00 | 2.01 | 1.34 | 78 | 1007.2 |
| 20260507185037 | 75 | 315 | 0.9 | 3.5 | 0.00 | 2.01 | 1.34 | 80 | 1007.2 |
| 20260507184037 | 75 | 0 | 0.9 | 3.5 | 0.00 | 2.01 | 1.34 | 79 | 1007.1 |
| 20260507183016 | 73 | 0 | 1.7 | 3.5 | 0.00 | 2.01 | 1.34 | 80 | 1007.1 |
| 20260507182036 | 72 | 338 | 1.7 | 3.5 | 0.00 | 2.01 | 1.34 | 83 | 1007.1 |
| 20260507181036 | 73 | 0 | 1.7 | 6.1 | 0.00 | 2.01 | 1.34 | 82 | 1007.2 |
| 20260507180017 | 73 | 315 | 0.9 | 2.6 | 0.00 | 2.08 | 1.34 | 88 | 1007.5 |
| 20260507175016 | 71 | 270 | 0.9 | 5.2 | 0.00 | 2.13 | 1.34 | 88 | 1007.9 |
| 20260507174017 | 71 | 293 | 0.9 | 4.3 | 0.00 | 2.14 | 1.34 | 89 | 1008.1 |
| 20260507173016 | 71 | 293 | 0.9 | 2.6 | 0.00 | 2.14 | 1.34 | 92 | 1007.9 |
| 20260507172017 | 70 | 293 | 0.9 | 5.2 | 0.00 | 2.17 | 1.34 | 91 | 1007.7 |
| 20260507171017 | 69 | 0.0 | 2.6 | 0.00 | 2.23 | 1.34 | 93 | 1008.2 | |
| 20260507170016 | 69 | 0.0 | 2.6 | 0.00 | 2.23 | 1.34 | 93 | 1008.1 | |
| 20260507165017 | 70 | 338 | 0.9 | 2.6 | 0.00 | 2.24 | 1.34 | 94 | 1007.9 |
| 20260507164016 | 70 | 0.0 | 2.6 | 0.00 | 2.24 | 1.34 | 96 | 1008.0 | |
| 20260507163017 | 68 | 0.0 | 1.7 | 0.00 | 2.24 | 1.34 | 96 | 1008.4 | |
| 20260507162017 | 68 | 293 | 0.9 | 5.2 | 0.00 | 2.24 | 1.34 | 96 | 1008.5 |
| 20260507161017 | 69 | 293 | 0.9 | 6.1 | 0.00 | 2.24 | 1.34 | 96 | 1008.3 |
| 20260507160017 | 68 | 23 | 0.9 | 6.1 | 0.01 | 2.24 | 1.34 | 97 | 1008.0 |
| 20260507155016 | 69 | 113 | 0.9 | 1.7 | 0.02 | 2.24 | 1.34 | 97 | 1007.6 |
| 20260507154017 | 68 | 0.0 | 0.9 | 0.03 | 2.24 | 1.34 | 98 | 1007.0 | |
| 20260507153017 | 67 | 0.0 | 1.7 | 0.03 | 2.24 | 1.34 | 98 | 1007.1 | |
| 20260507152017 | 67 | 0.0 | 0.9 | 0.03 | 2.24 | 1.34 | 98 | 1007.1 | |
| 20260507151117 | 67 | 0.0 | 0.0 | 0.04 | 2.24 | 1.34 | 97 | 1007.7 | |
| 20260507150017 | 67 | 0.0 | 1.7 | 0.03 | 2.23 | 1.33 | 98 | 1008.7 |